Regional Weather Roundup
Issued by NWS

Home | Current Version | Previous Version | Graphics & Text | Print | Product List | Glossary Off
Versions: 1 2 3 4 5 6 7 8 9 10 11 12 13 14 15 16 17 18 19 20 21 22 23 24 25 26 27 28 29 30 31 32 33 34 35 36 37 38 39 40 41 42 43 44 45 46 47 48 49 50

000
ASUS43 KTOP 201308
RWRKS

WEATHER ROUNDUP FOR KANSAS
NATIONAL WEATHER SERVICE GOODLAND KS
700 AM CST MON NOV 20 2017

NOTE:  "FAIR" INDICATES FEW OR NO CLOUDS BELOW 12,000 FEET WITH NO
SIGNIFICANT WEATHER AND/OR OBSTRUCTIONS TO VISIBILITY.

KSZ001>006-013>018-027>032-041>047-201400-
NORTHWEST KANSAS

CITY           SKY/WX    TMP DP  RH WIND       PRES   REMARKS
GOODLAND       CLOUDY    30  14  51 W9        29.82S
HAYS           CLOUDY    25  19  78 SW3       29.84F
HILL CITY      CLOUDY    26  21  81 SW7       29.81S
RUSSELL        CLOUDY    31  21  66 SW15      29.83R WCI  20
$$

KSZ061>065-074>080-084>089-201400-
SOUTHWEST KANSAS

CITY           SKY/WX    TMP DP  RH WIND       PRES   REMARKS
DODGE CITY     CLEAR     31  17  56 SW16      29.84F WCI  20
ELKHART        CLEAR     44  18  35 W16       29.87S
GARDEN CITY    CLOUDY    23  16  74 SW6       29.83F
GREAT BEND     CLEAR     35  19  52 S8        29.86S
LIBERAL        CLOUDY    25  17  72 SW9       29.88S
PRATT          CLEAR     33  19  55 S13       29.89S WCI  24
$$

KSZ066>073-081>083-090>101-201400-
SOUTHEAST KANSAS

CITY           SKY/WX    TMP DP  RH WIND       PRES   REMARKS
CHANUTE        CLEAR     39  28  64 S12       30.04F WCI  32
COFFEYVILLE    CLEAR     38  29  70 S7        30.08R
HUTCHINSON     CLEAR     37  26  64 S13       29.90F WCI  29
MEDICINE LODGE   N/A     36  23  59 S12       29.92F WCI  28
NEWTON         CLEAR     40  24  53 S21       29.92F WCI  30
PARSONS        CLEAR     39  30  70 S8        30.07F
WICHITA INTL   PTCLDY    37  27  67 S14       29.95F WCI  28
WICHITA JABRA  CLEAR     40  26  57 S15       29.95F WCI  32
WICHITA MCCONL CLEAR     39  25  56 S13       29.96F WCI  32
WINFIELD       CLEAR     40  28  62 S14       30.01F WCI  32
$$

KSZ007>012-019>026-033>040-048>060-102>105-201400-
NORTHEAST KANSAS

CITY           SKY/WX    TMP DP  RH WIND       PRES   REMARKS
CONCORDIA      CLEAR     40  21  46 S13       29.83S WCI  32
EMPORIA        CLEAR     37  26  64 S13       29.96F WCI  29
LAWRENCE       CLEAR     38  28  67 SE6       29.96F
MANHATTAN      CLEAR     42  24  49 SW12      29.89F
MARYSVILLE     CLOUDY    39  25  56 SW9       29.84F
OLATHE IND     CLEAR     43  27  53 S16       29.98F
OLATHE EXE     CLEAR     40  28  62 S10       29.98F WCI  33
SALINA         CLEAR     39  24  55 S10       29.87F WCI  32
TOPEKA BILLARD CLEAR     42  27  55 S15       29.93F
TOPEKA FORBES  CLEAR     42  27  55 S14       29.93F
$$



USA.gov is the U.S. government's official web portal to all federal, state and local government web resources and services.